This demonstration page uses our WeatherBlox Daily Observations layout. Learn more.

Left ArrowRight Arrow

39.01783, -85.05884

Hourly Observations for July 29, 2021

Temp ( °F °C ) Dew Point ( °F °C ) Humidity (%) Winds ( mph kmh ) Pressure ( in mb ) Visibility ( mi km ) Precip ( " mm )
12:52 am 00:52 Clear 75 23.9 69 20.6 82 82 SW 5 7 29.98 1015 10 16 N/A
1:52 am 01:52 Clear 74 23.3 69 20.6 85 85 SSW 3 6 29.98 1015 10 16 N/A
2:52 am 02:52 Clear 72 22.2 68 20 87 87 N N/A 29.98 1015 10 16 N/A
3:52 am 03:52 Clear 72 22.2 68 20 87 87 SSW 3 6 29.97 1015 10 16 N/A
4:52 am 04:52 Mostly Clear 73 22.8 69 20.6 87 87 W 3 6 29.99 1016 10 16 N/A
5:52 am 05:52 Cloudy 71 21.7 68 20 90 90 WSW 5 7 29.98 1015 10 16 N/A
6:52 am 06:52 Partly Cloudy with Mist and Fog 72 22.2 69 20.6 91 91 W 6 9 29.98 1015 6 10 N/A
7:52 am 07:52 Mostly Cloudy with Mist and Fog 73 22.8 70 21.1 90 90 W 5 7 30.00 1016 5 8 N/A
8:17 am 08:17 Mostly Cloudy with Mist and Fog 74 23.3 70 21.1 88 88 WSW 6 9 30.01 1016 5 8 N/A
8:52 am 08:52 Mostly Cloudy with Mist and Fog 73 22.8 70 21.1 90 90 SSW 5 7 29.99 1016 5 8 N/A
9:52 am 09:52 Cloudy with Mist and Fog 76 24.4 71 21.7 85 85 SSW 8 13 29.95 1014 6 10 N/A
10:52 am 10:52 Mostly Cloudy 80 26.7 72 22.2 76 76 WSW 6 9 29.97 1015 7 11 N/A
11:52 am 11:52 Mostly Cloudy 83 28.3 73 22.8 72 72 SW 8 13 29.96 1015 7 11 N/A
12:52 pm 12:52 Mostly Cloudy 83 28.3 71 21.7 67 67 SW 9 15 29.94 1014 8 13 N/A
1:52 pm 13:52 Cloudy 86 30 72 22.2 63 63 SW 12 19 29.92 1013 8 13 N/A
2:52 pm 14:52 Mostly Cloudy 88 31.1 72 22.2 59 59 WSW 13 20 29.92 1013 8 13 N/A
3:52 pm 15:52 Mostly Cloudy 88 31.1 71 21.7 57 57 WSW 14 22 29.91 1013 9 14 N/A
4:52 pm 16:52 Mostly Cloudy 88 31.1 73 22.8 61 61 WSW 14 22 29.89 1012 7 11 N/A
5:52 pm 17:52 Cloudy 87 30.6 73 22.8 63 63 WSW 10 17 29.89 1012 7 11 N/A
6:52 pm 18:52 Cloudy 84 28.9 73 22.8 70 70 SW 9 15 29.87 1011 7 11 N/A
7:52 pm 19:52 Mostly Cloudy 84 28.9 73 22.8 70 70 WSW 9 15 29.86 1011 8 13 N/A
8:52 pm 20:52 Cloudy 83 28.3 73 22.8 72 72 W 8 13 29.88 1012 9 14 N/A
9:52 pm 21:52 Cloudy 82 27.8 74 23.3 77 77 NNW 8 13 29.88 1012 9 14 N/A
10:52 pm 22:52 Cloudy 81 27.2 74 23.3 79 79 NNW 6 9 29.88 1012 10 16 N/A
11:52 pm 23:52 Cloudy 80 26.7 73 22.8 79 79 NNW 6 9 29.89 1012 10 16 N/A

Powered by AerisWeather